Location: Eferding
(48.3167°N, 14.0167°E)
Time: 02:21:39
(UTC+00:00)

Cosmos 2034 Rocket - Pass Details

Date: 12 November 2019
Orbit: 959 x 1000 km, 82.9° (Epoch: 14 December)

Event Time Altitude Azimuth Distance (km) Brightness Sun altitude
Rises 17:16:54 0° 353° (N) 3,710 7.0 -17.9°
Reaches altitude 10° 17:19:29 10° 357° (N) 2,763 6.3 -18.3°
Maximum altitude 17:25:44 58° 76° (ENE) 1,156 4.0 -19.3°
Drops below altitude 10° 17:31:59 10° 155° (SSE) 2,762 6.2 -20.4°
Sets 17:34:33 0° 160° (SSE) 3,709 6.9 -20.8°
